Location: Franzen
(48.6167°N, 15.3833°E)
Time: 00:17:06
(UTC+00:00)

Cosmos 2219 - Pass Details

Date: 03 August 2021
Orbit: 834 x 859 km, 71.1° (Epoch: 22 September)

Event Time Altitude Azimuth Distance (km) Brightness Sun altitude
Exits shadow 21:34:07 29° 109° (ESE) 1,516 4.2 -21.1°
Maximum altitude 21:34:23 29° 104° (ESE) 1,512 4.2 -21.1°
Drops below altitude 10° 21:39:16 10° 46° (NE) 2,504 5.9 -21.4°
Sets 21:42:01 0° 36° (NE) 3,446 6.8 -21.6°
